Time,TemperatureF,DewpointF,PressureIn,WindDirection,WindDirectionDegrees,WindSpeedMPH,WindSpeedGustMPH,Humidity,HourlyPrecipIn,Conditions,Clouds,dailyrainin,SolarRadiationWatts/m^2,SoftwareType,DateUTC
2013-03-05 00:00:00,38.8,25.0,30.12,East,83,2.0,3.0,57,0.00,,,0.00,0.0,meteohub,2013-03-05 05:00:00,
2013-03-05 00:02:00,38.8,25.0,30.12,East,83,0.0,3.0,57,0.00,,,0.00,0.0,meteohub,2013-03-05 05:02:00,
2013-03-05 00:07:00,39.0,25.2,30.11,East,83,2.0,3.0,57,0.00,,,0.00,0.0,meteohub,2013-03-05 05:07:00,
2013-03-05 00:12:00,38.7,25.2,30.11,East,83,2.0,3.0,58,0.00,,,0.00,0.0,meteohub,2013-03-05 05:12:00,
2013-03-05 00:17:00,38.8,25.3,30.11,East,83,0.0,3.0,58,0.00,,,0.00,0.0,meteohub,2013-03-05 05:17:00,
2013-03-05 00:22:00,39.4,25.3,30.11,East,83,2.0,3.0,57,0.00,,,0.00,0.0,meteohub,2013-03-05 05:22:00,
2013-03-05 00:27:00,39.6,25.5,30.11,NNW,344,1.0,3.0,57,0.00,,,0.00,0.0,meteohub,2013-03-05 05:27:00,
2013-03-05 00:32:00,39.7,25.7,30.11,NNE,28,3.0,3.0,57,0.00,,,0.00,0.0,meteohub,2013-03-05 05:32:00,
2013-03-05 00:37:00,39.7,25.7,30.11,South,172,0.0,4.0,57,0.00,,,0.00,0.0,meteohub,2013-03-05 05:37:00,
2013-03-05 00:42:00,40.1,26.1,30.11,SSW,206,1.0,4.0,57,0.00,,,0.00,0.0,meteohub,2013-03-05 05:42:00,
2013-03-05 00:47:00,39.7,26.2,30.11,WNW,290,2.0,4.0,58,0.00,,,0.00,0.0,meteohub,2013-03-05 05:47:00,
2013-03-05 00:53:00,39.9,26.4,30.11,WNW,291,1.0,3.0,58,0.00,,,0.00,0.0,meteohub,2013-03-05 05:53:00,
2013-03-05 00:58:00,39.9,26.4,30.11,WNW,303,1.0,6.0,58,0.00,,,0.00,0.0,meteohub,2013-03-05 05:58:00,
2013-03-05 01:03:00,40.1,26.6,30.11,WNW,302,2.0,6.0,58,0.00,,,0.00,0.0,meteohub,2013-03-05 06:03:00,
2013-03-05 01:08:00,39.9,26.8,30.11,West,261,1.0,6.0,59,0.00,,,0.00,0.0,meteohub,2013-03-05 06:08:00,
2013-03-05 01:13:00,39.9,26.8,30.11,WNW,291,1.0,3.0,59,0.00,,,0.00,0.0,meteohub,2013-03-05 06:13:00,
2013-03-05 01:18:00,39.9,26.8,30.11,WNW,289,2.0,3.0,59,0.00,,,0.00,0.0,meteohub,2013-03-05 06:18:00,
2013-03-05 01:23:00,39.9,26.8,30.11,West,277,1.0,3.0,59,0.00,,,0.00,0.0,meteohub,2013-03-05 06:23:00,
2013-03-05 01:28:00,40.3,27.1,30.11,South,185,1.0,3.0,59,0.00,,,0.00,0.0,meteohub,2013-03-05 06:28:00,
2013-03-05 01:33:00,40.3,27.1,30.10,SW,234,0.0,3.0,59,0.00,,,0.00,0.0,meteohub,2013-03-05 06:33:00,
2013-03-05 01:38:00,40.3,27.1,30.10,SW,230,0.0,4.0,59,0.00,,,0.00,0.0,meteohub,2013-03-05 06:38:00,
2013-03-05 01:43:00,40.6,27.5,30.10,NNW,330,2.0,4.0,59,0.00,,,0.00,0.0,meteohub,2013-03-05 06:43:00,
2013-03-05 01:49:00,40.6,27.5,30.10,NW,306,2.0,5.0,59,0.00,,,0.00,0.0,meteohub,2013-03-05 06:49:00,
2013-03-05 01:54:00,40.6,27.5,30.10,West,269,1.0,5.0,59,0.00,,,0.00,0.0,meteohub,2013-03-05 06:54:00,
2013-03-05 01:59:00,40.6,27.5,30.09,West,269,2.0,5.0,59,0.00,,,0.00,0.0,meteohub,2013-03-05 06:59:00,
2013-03-05 02:04:00,40.8,27.7,30.09,SE,144,0.0,4.0,59,0.00,,,0.00,0.0,meteohub,2013-03-05 07:04:00,
2013-03-05 02:09:00,41.0,27.3,30.09,SSW,205,1.0,4.0,58,0.00,,,0.00,0.0,meteohub,2013-03-05 07:09:00,
2013-03-05 02:14:00,41.2,27.5,30.09,SW,227,1.0,3.0,58,0.00,,,0.00,0.0,meteohub,2013-03-05 07:14:00,
2013-03-05 02:19:00,41.2,27.5,30.08,SW,217,0.0,7.0,58,0.00,,,0.00,0.0,meteohub,2013-03-05 07:19:00,
2013-03-05 02:24:00,41.0,27.3,30.08,SW,231,1.0,7.0,58,0.00,,,0.00,0.0,meteohub,2013-03-05 07:24:00,
2013-03-05 02:29:00,40.8,27.7,30.08,WNW,284,0.0,7.0,59,0.00,,,0.00,0.0,meteohub,2013-03-05 07:29:00,
2013-03-05 02:34:00,40.6,27.9,30.08,WNW,295,2.0,3.0,60,0.00,,,0.00,0.0,meteohub,2013-03-05 07:34:00,
2013-03-05 02:39:00,40.5,27.3,30.07,WNW,295,0.0,3.0,59,0.00,,,0.00,0.0,meteohub,2013-03-05 07:39:00,
2013-03-05 02:45:00,40.1,27.3,30.07,WNW,295,1.0,2.0,60,0.00,,,0.00,0.0,meteohub,2013-03-05 07:45:00,
2013-03-05 02:50:00,39.9,27.1,30.07,WNW,295,1.0,2.0,60,0.00,,,0.00,0.0,meteohub,2013-03-05 07:50:00,
2013-03-05 02:55:00,39.7,27.0,30.07,WNW,295,0.0,3.0,60,0.00,,,0.00,0.0,meteohub,2013-03-05 07:55:00,
2013-03-05 03:00:00,39.9,27.1,30.06,NW,306,2.0,3.0,60,0.00,,,0.00,0.0,meteohub,2013-03-05 08:00:00,
2013-03-05 03:05:00,40.5,27.7,30.05,WSW,246,0.0,2.0,60,0.00,,,0.00,0.0,meteohub,2013-03-05 08:05:00,
2013-03-05 03:10:00,40.6,27.9,30.05,SW,224,0.0,2.0,60,0.00,,,0.00,0.0,meteohub,2013-03-05 08:10:00,
2013-03-05 03:15:00,40.3,27.9,30.05,WNW,288,1.0,3.0,61,0.00,,,0.00,0.0,meteohub,2013-03-05 08:15:00,
2013-03-05 03:20:00,40.5,28.0,30.05,South,184,1.0,3.0,61,0.00,,,0.00,0.0,meteohub,2013-03-05 08:20:00,
2013-03-05 03:25:00,40.5,28.4,30.05,WSW,255,0.0,4.0,62,0.00,,,0.00,0.0,meteohub,2013-03-05 08:25:00,
2013-03-05 03:30:00,40.5,28.0,30.05,WSW,246,0.0,4.0,61,0.00,,,0.00,0.0,meteohub,2013-03-05 08:30:00,
2013-03-05 03:36:00,40.6,28.2,30.05,WSW,246,0.0,2.0,61,0.00,,,0.00,0.0,meteohub,2013-03-05 08:36:00,
2013-03-05 03:41:00,40.6,28.2,30.04,WSW,246,0.0,2.0,61,0.00,,,0.00,0.0,meteohub,2013-03-05 08:41:00,
2013-03-05 03:46:00,40.8,28.4,30.04,SSW,198,2.0,2.0,61,0.00,,,0.00,0.0,meteohub,2013-03-05 08:46:00,
2013-03-05 03:51:00,41.0,28.2,30.04,SSW,198,0.0,3.0,60,0.00,,,0.00,0.0,meteohub,2013-03-05 08:51:00,
2013-03-05 03:56:00,40.8,28.8,30.04,SSW,198,2.0,3.0,62,0.00,,,0.00,0.0,meteohub,2013-03-05 08:56:00,
2013-03-05 04:01:00,40.8,28.8,30.04,SSW,198,0.0,2.0,62,0.00,,,0.00,0.0,meteohub,2013-03-05 09:01:00,
2013-03-05 04:06:00,40.8,29.1,30.04,SSW,198,1.0,2.0,63,0.00,,,0.00,0.0,meteohub,2013-03-05 09:06:00,
2013-03-05 04:11:00,40.8,29.1,30.04,SSE,163,0.0,2.0,63,0.00,,,0.00,0.0,meteohub,2013-03-05 09:11:00,
2013-03-05 04:16:00,41.0,29.3,30.03,SSE,163,1.0,2.0,63,0.00,,,0.00,0.0,meteohub,2013-03-05 09:16:00,
2013-03-05 04:22:00,40.8,28.8,30.03,SSE,163,0.0,2.0,62,0.00,,,0.00,0.0,meteohub,2013-03-05 09:22:00,
2013-03-05 04:27:00,40.8,28.8,30.03,SSE,163,0.0,2.0,62,0.00,,,0.00,0.0,meteohub,2013-03-05 09:27:00,
2013-03-05 04:32:00,40.6,28.6,30.03,SSE,163,0.0,2.0,62,0.00,,,0.00,0.0,meteohub,2013-03-05 09:32:00,
2013-03-05 04:37:00,40.6,28.6,30.03,SSE,163,0.0,1.0,62,0.00,,,0.00,0.0,meteohub,2013-03-05 09:37:00,
2013-03-05 04:42:00,40.6,29.1,30.03,SSE,163,1.0,1.0,63,0.00,,,0.00,0.0,meteohub,2013-03-05 09:42:00,
2013-03-05 04:47:00,40.6,28.6,30.03,SSE,163,1.0,1.0,62,0.00,,,0.00,0.0,meteohub,2013-03-05 09:47:00,
2013-03-05 04:52:00,41.0,28.9,30.03,SSW,199,1.0,2.0,62,0.00,,,0.00,0.0,meteohub,2013-03-05 09:52:00,
2013-03-05 04:57:00,41.2,28.8,30.03,SSW,199,0.0,2.0,61,0.00,,,0.00,0.0,meteohub,2013-03-05 09:57:00,
2013-03-05 05:02:00,41.0,28.9,30.03,SSW,200,0.0,2.0,62,0.00,,,0.00,0.0,meteohub,2013-03-05 10:02:00,
2013-03-05 05:07:00,41.0,28.9,30.02,SSW,200,1.0,2.0,62,0.00,,,0.00,0.0,meteohub,2013-03-05 10:07:00,
2013-03-05 05:12:00,41.2,29.1,30.02,SSW,200,1.0,3.0,62,0.00,,,0.00,0.0,meteohub,2013-03-05 10:12:00,
2013-03-05 05:17:00,40.8,29.1,30.02,SSW,200,0.0,3.0,63,0.00,,,0.00,0.0,meteohub,2013-03-05 10:17:00,
2013-03-05 05:22:00,40.6,28.6,30.02,SSW,200,1.0,2.0,62,0.00,,,0.00,0.0,meteohub,2013-03-05 10:22:00,
2013-03-05 05:27:00,40.5,29.3,30.02,SSW,200,2.0,2.0,64,0.00,,,0.00,0.0,meteohub,2013-03-05 10:27:00,
2013-03-05 05:32:00,40.3,28.8,30.02,SSW,200,0.0,2.0,63,0.00,,,0.00,0.0,meteohub,2013-03-05 10:32:00,
2013-03-05 05:37:00,40.3,28.2,30.02,SSW,200,1.0,2.0,62,0.00,,,0.00,0.0,meteohub,2013-03-05 10:37:00,
2013-03-05 05:42:00,40.1,27.7,30.01,SSW,200,0.0,2.0,61,0.00,,,0.00,0.0,meteohub,2013-03-05 10:42:00,
2013-03-05 05:47:00,40.1,27.7,30.01,SSE,154,2.0,2.0,61,0.00,,,0.00,0.0,meteohub,2013-03-05 10:47:00,
2013-03-05 05:52:00,40.1,28.0,30.01,East,98,1.0,2.0,62,0.00,,,0.00,0.0,meteohub,2013-03-05 10:52:00,
2013-03-05 05:57:00,39.9,28.4,30.01,East,98,0.0,3.0,63,0.00,,,0.00,0.0,meteohub,2013-03-05 10:57:00,
2013-03-05 06:02:00,39.7,28.6,30.01,East,98,1.0,3.0,64,0.00,,,0.00,0.0,meteohub,2013-03-05 11:02:00,
2013-03-05 06:07:00,39.6,28.0,30.01,East,98,0.0,2.0,63,0.00,,,0.00,0.0,meteohub,2013-03-05 11:07:00,
2013-03-05 06:12:00,39.4,27.9,30.01,East,98,0.0,2.0,63,0.00,,,0.00,0.0,meteohub,2013-03-05 11:12:00,
2013-03-05 06:17:00,39.4,27.9,30.01,ESE,121,1.0,2.0,63,0.00,,,0.00,0.0,meteohub,2013-03-05 11:17:00,
2013-03-05 06:22:00,39.4,28.2,30.00,ESE,122,0.0,3.0,64,0.00,,,0.00,0.0,meteohub,2013-03-05 11:22:00,
2013-03-05 06:27:00,39.2,27.7,30.00,East,90,0.0,3.0,63,0.00,,,0.00,0.0,meteohub,2013-03-05 11:27:00,
2013-03-05 06:32:00,39.2,28.0,30.00,East,90,1.0,3.0,64,0.00,,,0.00,0.0,meteohub,2013-03-05 11:32:00,
2013-03-05 06:37:00,39.0,27.5,29.99,East,90,1.0,3.0,63,0.00,,,0.00,0.0,meteohub,2013-03-05 11:37:00,
2013-03-05 06:42:00,38.8,27.7,30.00,East,90,1.0,3.0,64,0.00,,,0.00,0.0,meteohub,2013-03-05 11:42:00,
2013-03-05 06:47:00,38.7,28.2,30.00,East,90,0.0,2.0,66,0.00,,,0.00,0.0,meteohub,2013-03-05 11:47:00,
2013-03-05 06:52:00,38.3,28.2,30.00,ESE,104,1.0,2.0,67,0.00,,,0.00,0.0,meteohub,2013-03-05 11:52:00,
2013-03-05 06:57:00,37.9,29.3,30.00,ESE,104,0.0,3.0,71,0.00,,,0.00,0.0,meteohub,2013-03-05 11:57:00,
2013-03-05 07:02:00,37.4,30.9,29.99,ESE,104,0.0,3.0,77,0.00,,,0.00,0.0,meteohub,2013-03-05 12:02:00,
2013-03-05 07:07:00,37.0,31.1,29.99,ESE,105,0.0,3.0,79,0.00,,,0.00,0.0,meteohub,2013-03-05 12:07:00,
2013-03-05 07:12:00,36.9,31.3,29.99,ESE,105,0.0,3.0,80,0.00,,,0.00,0.0,meteohub,2013-03-05 12:12:00,
2013-03-05 07:17:00,36.7,31.5,29.99,ESE,105,1.0,3.0,81,0.00,,,0.00,0.0,meteohub,2013-03-05 12:17:00,
2013-03-05 07:22:00,36.5,30.9,29.98,ESE,105,0.0,3.0,80,0.00,,,0.00,7.0,meteohub,2013-03-05 12:22:00,
2013-03-05 07:27:00,36.7,30.2,29.98,ESE,105,1.0,2.0,77,0.00,,,0.00,25.0,meteohub,2013-03-05 12:27:00,
2013-03-05 07:32:00,36.7,30.2,29.98,ESE,105,0.0,2.0,77,0.00,,,0.00,19.0,meteohub,2013-03-05 12:32:00,
2013-03-05 07:37:00,36.7,29.8,29.98,ESE,105,0.0,2.0,76,0.00,,,0.00,18.0,meteohub,2013-03-05 12:37:00,
2013-03-05 07:42:00,36.9,31.3,29.98,ESE,105,0.0,2.0,80,0.00,,,0.00,28.0,meteohub,2013-03-05 12:42:00,
2013-03-05 07:47:00,36.9,30.9,29.98,East,83,2.0,3.0,79,0.00,,,0.00,23.0,meteohub,2013-03-05 12:47:00,
2013-03-05 07:52:00,37.0,31.8,29.98,East,83,1.0,3.0,81,0.00,,,0.00,21.0,meteohub,2013-03-05 12:52:00,
2013-03-05 07:57:00,36.9,31.6,29.98,NE,35,1.0,5.0,81,0.00,,,0.00,25.0,meteohub,2013-03-05 12:57:00,
2013-03-05 08:02:00,36.9,32.7,29.98,NNE,27,5.0,5.0,85,0.00,,,0.00,18.0,meteohub,2013-03-05 13:02:00,
2013-03-05 08:07:00,37.0,33.6,29.98,NE,40,2.0,5.0,87,0.00,,,0.00,21.0,meteohub,2013-03-05 13:07:00,
2013-03-05 08:12:00,37.6,34.7,29.97,NE,40,1.0,5.0,89,0.00,,,0.00,18.0,meteohub,2013-03-05 13:12:00,
2013-03-05 08:17:00,37.6,34.7,29.98,NE,40,0.0,5.0,89,0.01,,,0.01,30.0,meteohub,2013-03-05 13:17:00,
2013-03-05 08:22:00,37.8,35.4,29.97,NE,40,2.0,3.0,91,0.01,,,0.01,19.0,meteohub,2013-03-05 13:22:00,
2013-03-05 08:27:00,37.6,34.7,29.97,NE,40,0.0,2.0,89,0.02,,,0.02,18.0,meteohub,2013-03-05 13:27:00,
2013-03-05 08:32:00,37.4,34.7,29.97,NE,40,1.0,2.0,90,0.03,,,0.03,30.0,meteohub,2013-03-05 13:32:00,
2013-03-05 08:37:00,37.0,34.3,29.97,SSE,151,2.0,3.0,90,0.03,,,0.03,33.0,meteohub,2013-03-05 13:37:00,
2013-03-05 08:42:00,36.9,34.5,29.96,South,173,2.0,3.0,91,0.03,,,0.03,67.0,meteohub,2013-03-05 13:42:00,
2013-03-05 08:47:00,37.0,34.9,29.96,ESE,108,2.0,3.0,92,0.03,,,0.03,69.0,meteohub,2013-03-05 13:47:00,
2013-03-05 08:52:00,37.6,35.8,29.96,East,80,3.0,4.0,93,0.03,,,0.03,60.0,meteohub,2013-03-05 13:52:00,
2013-03-05 08:57:00,37.8,36.0,29.96,ENE,72,1.0,4.0,93,0.03,,,0.03,72.0,meteohub,2013-03-05 13:57:00,
2013-03-05 09:02:00,38.1,36.5,29.96,ENE,72,2.0,3.0,94,0.03,,,0.03,56.0,meteohub,2013-03-05 14:02:00,
2013-03-05 09:07:00,38.5,36.9,29.96,East,83,0.0,3.0,94,0.03,,,0.03,51.0,meteohub,2013-03-05 14:07:00,
2013-03-05 09:12:00,38.8,37.6,29.95,East,85,0.0,3.0,95,0.03,,,0.03,100.0,meteohub,2013-03-05 14:12:00,
2013-03-05 09:17:00,38.5,36.9,29.94,SE,135,2.0,3.0,94,0.02,,,0.03,32.0,meteohub,2013-03-05 14:17:00,
2013-03-05 09:22:00,38.1,36.5,29.95,SE,134,1.0,4.0,94,0.02,,,0.03,46.0,meteohub,2013-03-05 14:22:00,
2013-03-05 09:27:00,38.1,36.5,29.95,SE,134,1.0,4.0,94,0.00,,,0.03,47.0,meteohub,2013-03-05 14:27:00,
2013-03-05 09:32:00,38.1,36.5,29.95,South,180,1.0,4.0,94,0.00,,,0.03,98.0,meteohub,2013-03-05 14:32:00,
2013-03-05 09:37:00,38.1,36.9,29.95,South,180,0.0,4.0,95,0.00,,,0.03,53.0,meteohub,2013-03-05 14:37:00,
2013-03-05 09:42:00,38.1,36.9,29.94,South,182,0.0,4.0,95,0.00,,,0.03,98.0,meteohub,2013-03-05 14:42:00,
2013-03-05 09:47:00,38.1,36.9,29.94,SE,128,1.0,6.0,95,0.00,,,0.03,60.0,meteohub,2013-03-05 14:47:00,
2013-03-05 09:52:00,37.9,36.3,29.94,SE,128,1.0,6.0,94,0.00,,,0.03,49.0,meteohub,2013-03-05 14:52:00,
2013-03-05 09:57:00,37.8,36.1,29.94,SSW,193,0.0,4.0,94,0.00,,,0.03,46.0,meteohub,2013-03-05 14:57:00,
2013-03-05 10:02:00,37.6,36.0,29.94,SSW,194,1.0,4.0,94,0.00,,,0.03,39.0,meteohub,2013-03-05 15:02:00,
2013-03-05 10:07:00,37.6,36.0,29.94,ESE,121,0.0,3.0,94,0.00,,,0.03,42.0,meteohub,2013-03-05 15:07:00,
2013-03-05 10:12:00,37.2,35.6,29.94,ESE,121,0.0,3.0,94,0.00,,,0.03,46.0,meteohub,2013-03-05 15:12:00,
2013-03-05 10:17:00,36.9,35.2,29.94,ENE,72,0.0,4.0,94,0.00,,,0.03,53.0,meteohub,2013-03-05 15:17:00,
2013-03-05 10:22:00,37.0,35.8,29.93,ENE,72,0.0,4.0,95,0.00,,,0.03,53.0,meteohub,2013-03-05 15:22:00,
2013-03-05 10:27:00,37.0,35.8,29.93,ENE,72,2.0,4.0,95,0.00,,,0.03,88.0,meteohub,2013-03-05 15:27:00,
2013-03-05 10:32:00,37.2,36.0,29.93,ENE,64,0.0,3.0,95,0.00,,,0.03,60.0,meteohub,2013-03-05 15:32:00,
2013-03-05 10:37:00,37.6,36.3,29.94,NE,39,1.0,3.0,95,0.00,,,0.03,74.0,meteohub,2013-03-05 15:37:00,
2013-03-05 10:42:00,37.6,36.5,29.94,SE,125,1.0,3.0,96,0.00,,,0.03,58.0,meteohub,2013-03-05 15:42:00,
2013-03-05 10:47:00,37.6,36.5,29.94,ESE,115,2.0,3.0,96,0.00,,,0.03,70.0,meteohub,2013-03-05 15:47:00,
2013-03-05 10:52:00,37.6,36.5,29.93,East,96,0.0,3.0,96,0.00,,,0.03,69.0,meteohub,2013-03-05 15:52:00,
2013-03-05 10:57:00,37.9,36.9,29.92,SE,133,0.0,3.0,96,0.00,,,0.03,62.0,meteohub,2013-03-05 15:57:00,
2013-03-05 11:02:00,38.5,37.4,29.92,SE,133,2.0,3.0,96,0.00,,,0.03,63.0,meteohub,2013-03-05 16:02:00,
2013-03-05 11:07:00,38.7,37.6,29.91,SE,133,1.0,3.0,96,0.00,,,0.03,63.0,meteohub,2013-03-05 16:07:00,
2013-03-05 11:12:00,38.5,37.4,29.91,SE,133,0.0,2.0,96,0.00,,,0.03,69.0,meteohub,2013-03-05 16:12:00,
2013-03-05 11:17:00,38.3,37.2,29.91,SSE,148,0.0,2.0,96,0.00,,,0.03,77.0,meteohub,2013-03-05 16:17:00,
2013-03-05 11:22:00,37.9,36.9,29.91,SSE,148,0.0,2.0,96,0.00,,,0.03,63.0,meteohub,2013-03-05 16:22:00,
2013-03-05 11:27:00,38.8,38.1,29.91,ENE,59,0.0,2.0,97,0.00,,,0.03,67.0,meteohub,2013-03-05 16:27:00,
2013-03-05 11:32:00,39.4,38.7,29.90,SSE,164,1.0,3.0,97,0.00,,,0.03,134.0,meteohub,2013-03-05 16:32:00,
2013-03-05 11:37:00,39.7,39.0,29.90,SSE,164,0.0,3.0,97,0.00,,,0.03,77.0,meteohub,2013-03-05 16:37:00,
2013-03-05 11:42:00,40.1,39.4,29.90,ESE,114,1.0,3.0,97,0.00,,,0.03,67.0,meteohub,2013-03-05 16:42:00,
2013-03-05 11:47:00,39.9,39.2,29.90,ESE,115,1.0,3.0,97,0.00,,,0.03,53.0,meteohub,2013-03-05 16:47:00,
2013-03-05 11:52:00,40.3,39.6,29.89,ENE,68,0.0,3.0,97,0.00,,,0.03,97.0,meteohub,2013-03-05 16:52:00,
2013-03-05 11:57:00,39.7,39.0,29.88,ENE,69,1.0,5.0,97,0.00,,,0.03,121.0,meteohub,2013-03-05 16:57:00,
2013-03-05 12:02:00,40.1,39.4,29.88,SSE,163,0.0,5.0,97,0.00,,,0.03,90.0,meteohub,2013-03-05 17:02:00,
2013-03-05 12:07:00,40.5,39.7,29.89,ESE,105,0.0,3.0,97,0.00,,,0.03,77.0,meteohub,2013-03-05 17:07:00,
2013-03-05 12:12:00,40.8,40.1,29.88,ENE,66,0.0,3.0,97,0.00,,,0.03,70.0,meteohub,2013-03-05 17:12:00,
2013-03-05 12:17:00,41.4,40.6,29.88,SE,124,3.0,5.0,97,0.00,,,0.03,77.0,meteohub,2013-03-05 17:17:00,
2013-03-05 12:22:00,41.5,40.8,29.88,SW,227,2.0,5.0,97,0.00,,,0.03,132.0,meteohub,2013-03-05 17:22:00,
2013-03-05 12:27:00,41.4,40.6,29.87,SSE,156,2.0,5.0,97,0.00,,,0.03,163.0,meteohub,2013-03-05 17:27:00,
2013-03-05 12:32:00,41.5,40.8,29.88,SW,215,2.0,4.0,97,0.00,,,0.03,137.0,meteohub,2013-03-05 17:32:00,
2013-03-05 12:37:00,41.7,41.0,29.88,SW,215,1.0,4.0,97,0.00,,,0.03,107.0,meteohub,2013-03-05 17:37:00,
2013-03-05 12:42:00,42.3,41.5,29.87,SSE,168,3.0,3.0,97,0.00,,,0.03,121.0,meteohub,2013-03-05 17:42:00,
2013-03-05 12:47:00,43.0,42.3,29.87,South,190,2.0,10.0,97,0.00,,,0.03,114.0,meteohub,2013-03-05 17:47:00,
2013-03-05 12:52:00,43.2,42.4,29.87,SW,232,0.0,10.0,97,0.00,,,0.03,95.0,meteohub,2013-03-05 17:52:00,
2013-03-05 12:57:00,43.3,42.6,29.86,SSE,153,1.0,10.0,97,0.00,,,0.03,84.0,meteohub,2013-03-05 17:57:00,
2013-03-05 13:02:00,43.0,42.3,29.86,SSW,200,0.0,3.0,97,0.00,,,0.03,44.0,meteohub,2013-03-05 18:02:00,
2013-03-05 13:07:00,42.8,42.1,29.86,SSW,205,2.0,3.0,97,0.00,,,0.03,33.0,meteohub,2013-03-05 18:07:00,
2013-03-05 13:12:00,42.8,42.1,29.86,SSW,205,0.0,3.0,97,0.00,,,0.03,44.0,meteohub,2013-03-05 18:12:00,
2013-03-05 13:17:00,42.6,41.9,29.85,SSW,205,0.0,3.0,97,0.00,,,0.03,63.0,meteohub,2013-03-05 18:17:00,
2013-03-05 13:22:00,42.4,41.7,29.85,SSE,157,1.0,3.0,97,0.00,,,0.03,44.0,meteohub,2013-03-05 18:22:00,
2013-03-05 13:27:00,42.4,41.7,29.85,SW,228,1.0,3.0,97,0.00,,,0.03,49.0,meteohub,2013-03-05 18:27:00,
2013-03-05 13:32:00,42.8,42.1,29.84,SE,142,3.0,4.0,97,0.00,,,0.03,47.0,meteohub,2013-03-05 18:32:00,
2013-03-05 13:37:00,43.0,42.3,29.84,SW,231,2.0,6.0,97,0.00,,,0.03,35.0,meteohub,2013-03-05 18:37:00,
2013-03-05 13:42:00,42.8,42.1,29.83,SW,225,0.0,6.0,97,0.00,,,0.03,26.0,meteohub,2013-03-05 18:42:00,
2013-03-05 13:47:00,42.4,41.7,29.83,SSE,167,1.0,6.0,97,0.00,,,0.03,32.0,meteohub,2013-03-05 18:47:00,
2013-03-05 13:52:00,42.3,41.5,29.83,SSE,155,3.0,4.0,97,0.00,,,0.03,40.0,meteohub,2013-03-05 18:52:00,
2013-03-05 13:57:00,42.3,41.5,29.82,South,182,1.0,3.0,97,0.00,,,0.03,33.0,meteohub,2013-03-05 18:57:00,
2013-03-05 14:02:00,42.6,41.9,29.82,SW,221,0.0,3.0,97,0.00,,,0.03,32.0,meteohub,2013-03-05 19:02:00,
2013-03-05 14:07:00,42.6,41.9,29.81,WSW,244,4.0,7.0,97,0.00,,,0.03,35.0,meteohub,2013-03-05 19:07:00,
2013-03-05 14:12:00,43.9,43.2,29.81,SW,222,4.0,7.0,97,0.00,,,0.03,23.0,meteohub,2013-03-05 19:12:00,
2013-03-05 14:17:00,45.1,44.6,29.81,SSE,168,3.0,7.0,98,0.00,,,0.03,32.0,meteohub,2013-03-05 19:17:00,
2013-03-05 14:22:00,46.0,45.5,29.81,West,281,3.0,9.0,98,0.00,,,0.03,25.0,meteohub,2013-03-05 19:22:00,
2013-03-05 14:27:00,46.2,45.7,29.80,WSW,255,3.0,10.0,98,0.00,,,0.03,32.0,meteohub,2013-03-05 19:27:00,
2013-03-05 14:33:00,46.6,46.0,29.80,ESE,113,1.0,10.0,98,0.00,,,0.03,42.0,meteohub,2013-03-05 19:33:00,
2013-03-05 14:38:00,46.8,46.2,29.80,West,270,2.0,8.0,98,0.01,,,0.04,30.0,meteohub,2013-03-05 19:38:00,
2013-03-05 14:43:00,46.8,46.2,29.80,SW,235,2.0,8.0,98,0.01,,,0.04,26.0,meteohub,2013-03-05 19:43:00,
2013-03-05 14:48:00,46.9,46.4,29.79,SW,221,1.0,8.0,98,0.01,,,0.04,35.0,meteohub,2013-03-05 19:48:00,
2013-03-05 14:53:00,46.9,46.4,29.78,SSW,207,0.0,8.0,98,0.02,,,0.05,30.0,meteohub,2013-03-05 19:53:00,
2013-03-05 14:58:00,46.9,46.4,29.78,East,98,2.0,7.0,98,0.02,,,0.05,39.0,meteohub,2013-03-05 19:58:00,
2013-03-05 15:03:00,46.9,46.4,29.78,South,189,2.0,5.0,98,0.02,,,0.05,28.0,meteohub,2013-03-05 20:03:00,
2013-03-05 15:08:00,46.6,46.0,29.77,South,175,0.0,5.0,98,0.02,,,0.05,23.0,meteohub,2013-03-05 20:08:00,
2013-03-05 15:13:00,46.6,46.0,29.77,SSE,163,3.0,5.0,98,0.02,,,0.05,21.0,meteohub,2013-03-05 20:13:00,
2013-03-05 15:19:00,45.9,45.1,29.76,SSE,158,2.0,7.0,97,0.02,,,0.05,18.0,meteohub,2013-03-05 20:19:00,
2013-03-05 15:24:00,45.7,45.1,29.76,ESE,123,4.0,7.0,98,0.02,,,0.05,23.0,meteohub,2013-03-05 20:24:00,
2013-03-05 15:29:00,45.7,45.1,29.76,NNE,32,0.0,8.0,98,0.02,,,0.05,28.0,meteohub,2013-03-05 20:29:00,
2013-03-05 15:34:00,45.5,44.8,29.76,SW,232,2.0,8.0,97,0.02,,,0.05,18.0,meteohub,2013-03-05 20:34:00,
2013-03-05 15:39:00,45.3,44.6,29.76,South,169,2.0,8.0,97,0.01,,,0.05,19.0,meteohub,2013-03-05 20:39:00,
2013-03-05 15:44:00,45.3,44.6,29.76,ESE,107,1.0,7.0,97,0.01,,,0.05,14.0,meteohub,2013-03-05 20:44:00,
2013-03-05 15:49:00,45.3,44.6,29.75,ESE,117,3.0,4.0,97,0.00,,,0.05,11.0,meteohub,2013-03-05 20:49:00,
2013-03-05 15:54:00,45.3,44.6,29.75,South,191,3.0,7.0,97,0.00,,,0.05,11.0,meteohub,2013-03-05 20:54:00,
2013-03-05 15:59:00,45.3,44.6,29.74,SSE,152,2.0,8.0,97,0.01,,,0.06,9.0,meteohub,2013-03-05 20:59:00,
2013-03-05 16:04:00,45.3,44.6,29.73,SE,145,2.0,8.0,97,0.01,,,0.06,11.0,meteohub,2013-03-05 21:04:00,
2013-03-05 16:09:00,45.1,44.6,29.73,ESE,123,5.0,9.0,98,0.01,,,0.06,16.0,meteohub,2013-03-05 21:09:00,
2013-03-05 16:14:00,45.1,44.6,29.72,SSE,150,5.0,9.0,98,0.01,,,0.06,11.0,meteohub,2013-03-05 21:14:00,
2013-03-05 16:20:00,45.0,44.2,29.71,SE,144,2.0,9.0,97,0.01,,,0.07,9.0,meteohub,2013-03-05 21:20:00,
2013-03-05 16:25:00,45.0,44.2,29.70,SSW,209,2.0,7.0,97,0.04,,,0.09,9.0,meteohub,2013-03-05 21:25:00,
2013-03-05 16:30:00,44.8,44.1,29.70,South,169,1.0,5.0,97,0.04,,,0.09,12.0,meteohub,2013-03-05 21:30:00,
2013-03-05 16:35:00,44.8,44.2,29.68,SE,128,2.0,5.0,98,0.06,,,0.11,11.0,meteohub,2013-03-05 21:35:00,
2013-03-05 16:40:00,44.6,44.1,29.68,ESE,122,4.0,5.0,98,0.07,,,0.12,0.0,meteohub,2013-03-05 21:40:00,
2013-03-05 16:45:00,44.6,44.1,29.68,SE,143,2.0,6.0,98,0.10,,,0.15,5.0,meteohub,2013-03-05 21:45:00,
2013-03-05 16:50:00,44.6,44.1,29.68,SE,131,1.0,6.0,98,0.12,,,0.17,0.0,meteohub,2013-03-05 21:50:00,
2013-03-05 16:55:00,44.8,44.2,29.68,SW,222,0.0,4.0,98,0.14,,,0.20,0.0,meteohub,2013-03-05 21:55:00,
2013-03-05 17:00:00,44.8,44.2,29.67,ESE,122,2.0,4.0,98,0.18,,,0.24,0.0,meteohub,2013-03-05 22:00:00,
2013-03-05 17:05:00,44.8,44.2,29.67,ESE,122,0.0,3.0,98,0.19,,,0.25,0.0,meteohub,2013-03-05 22:05:00,
2013-03-05 17:10:00,44.8,44.2,29.68,SW,229,0.0,4.0,98,0.25,,,0.31,0.0,meteohub,2013-03-05 22:10:00,
2013-03-05 17:16:00,44.6,44.1,29.68,SSW,199,0.0,4.0,98,0.26,,,0.33,0.0,meteohub,2013-03-05 22:16:00,
2013-03-05 17:21:00,44.6,44.1,29.69,WSW,246,2.0,4.0,98,0.31,,,0.39,0.0,meteohub,2013-03-05 22:21:00,
2013-03-05 17:26:00,44.8,44.2,29.69,WSW,246,0.0,4.0,98,0.37,,,0.46,0.0,meteohub,2013-03-05 22:26:00,
2013-03-05 17:31:00,45.0,44.4,29.69,SSW,208,3.0,4.0,98,0.39,,,0.49,0.0,meteohub,2013-03-05 22:31:00,
2013-03-05 17:36:00,45.1,44.6,29.69,West,273,1.0,5.0,98,0.41,,,0.53,0.0,meteohub,2013-03-05 22:36:00,
2013-03-05 17:41:00,45.3,44.8,29.69,West,273,1.0,5.0,98,0.47,,,0.60,0.0,meteohub,2013-03-05 22:41:00,
2013-03-05 17:46:00,45.5,45.0,29.70,SW,221,1.0,5.0,98,0.47,,,0.62,0.0,meteohub,2013-03-05 22:46:00,
2013-03-05 17:51:00,45.7,45.1,29.70,South,169,2.0,4.0,98,0.48,,,0.66,0.0,meteohub,2013-03-05 22:51:00,
2013-03-05 17:56:00,46.0,45.5,29.69,SW,226,1.0,7.0,98,0.48,,,0.69,0.0,meteohub,2013-03-05 22:56:00,
2013-03-05 18:01:00,46.0,45.5,29.70,SW,223,1.0,7.0,98,0.46,,,0.70,0.0,meteohub,2013-03-05 23:01:00,
2013-03-05 18:06:00,45.9,45.3,29.68,SE,144,3.0,7.0,98,0.47,,,0.74,5.0,meteohub,2013-03-05 23:06:00,
2013-03-05 18:11:00,45.5,45.0,29.68,SSW,213,3.0,7.0,98,0.44,,,0.76,12.0,meteohub,2013-03-05 23:11:00,
2013-03-05 18:17:00,45.3,44.8,29.66,SSE,155,0.0,9.0,98,0.39,,,0.76,23.0,meteohub,2013-03-05 23:17:00,
2013-03-05 18:22:00,45.3,44.8,29.66,SSE,168,3.0,9.0,98,0.35,,,0.76,23.0,meteohub,2013-03-05 23:22:00,
2013-03-05 18:27:00,45.3,44.8,29.66,South,180,2.0,9.0,98,0.29,,,0.76,7.0,meteohub,2013-03-05 23:27:00,
2013-03-05 18:32:00,45.1,44.6,29.67,SW,218,1.0,4.0,98,0.25,,,0.76,0.0,meteohub,2013-03-05 23:32:00,
2013-03-05 18:37:00,45.0,44.4,29.66,SW,218,1.0,4.0,98,0.21,,,0.76,0.0,meteohub,2013-03-05 23:37:00,
2013-03-05 18:42:00,45.0,44.4,29.66,SW,218,1.0,4.0,98,0.16,,,0.76,0.0,meteohub,2013-03-05 23:42:00,
2013-03-05 18:47:00,44.8,44.2,29.66,SSE,150,0.0,4.0,98,0.12,,,0.76,0.0,meteohub,2013-03-05 23:47:00,
2013-03-05 18:52:00,44.4,43.9,29.67,SSE,150,1.0,3.0,98,0.09,,,0.76,0.0,meteohub,2013-03-05 23:52:00,
2013-03-05 18:57:00,44.8,44.2,29.68,West,280,3.0,4.0,98,0.07,,,0.76,0.0,meteohub,2013-03-05 23:57:00,
2013-03-05 19:02:00,45.0,44.4,29.68,ENE,58,1.0,9.0,98,0.05,,,0.76,0.0,meteohub,2013-03-06 00:02:00,
2013-03-05 19:07:00,45.0,44.4,29.68,West,266,3.0,9.0,98,0.02,,,0.76,0.0,meteohub,2013-03-06 00:07:00,
2013-03-05 19:12:00,45.1,44.6,29.66,WNW,296,2.0,7.0,98,0.00,,,0.76,0.0,meteohub,2013-03-06 00:12:00,
2013-03-05 19:17:00,45.1,44.6,29.66,SW,228,1.0,8.0,98,0.00,,,0.76,0.0,meteohub,2013-03-06 00:17:00,
2013-03-05 19:22:00,45.0,44.4,29.66,West,262,0.0,8.0,98,0.00,,,0.76,0.0,meteohub,2013-03-06 00:22:00,
2013-03-05 19:27:00,44.6,43.9,29.66,WNW,299,3.0,8.0,97,0.00,,,0.76,0.0,meteohub,2013-03-06 00:27:00,
2013-03-05 19:32:00,44.2,43.2,29.66,SSW,196,2.0,8.0,96,0.00,,,0.76,0.0,meteohub,2013-03-06 00:32:00,
2013-03-05 19:37:00,43.7,42.4,29.66,SSW,205,3.0,7.0,95,0.00,,,0.76,0.0,meteohub,2013-03-06 00:37:00,
2013-03-05 19:42:00,43.9,42.6,29.66,WSW,244,2.0,5.0,95,0.00,,,0.76,0.0,meteohub,2013-03-06 00:42:00,
2013-03-05 19:47:00,43.9,42.6,29.67,SW,233,1.0,9.0,95,0.01,,,0.77,0.0,meteohub,2013-03-06 00:47:00,
2013-03-05 19:52:00,43.5,42.3,29.66,WNW,286,3.0,9.0,95,0.02,,,0.78,0.0,meteohub,2013-03-06 00:52:00,
2013-03-05 19:57:00,43.3,41.7,29.65,WNW,302,2.0,9.0,94,0.03,,,0.79,0.0,meteohub,2013-03-06 00:57:00,
2013-03-05 20:02:00,43.3,41.2,29.65,WNW,282,3.0,14.0,92,0.03,,,0.79,0.0,meteohub,2013-03-06 01:02:00,
2013-03-05 20:07:00,43.2,41.0,29.65,SW,229,7.0,14.0,92,0.03,,,0.79,0.0,meteohub,2013-03-06 01:07:00,
2013-03-05 20:12:00,43.2,40.6,29.64,East,90,7.0,12.0,91,0.03,,,0.79,0.0,meteohub,2013-03-06 01:12:00,
2013-03-05 20:17:00,43.2,40.5,29.65,WSW,256,6.0,12.0,90,0.03,,,0.79,0.0,meteohub,2013-03-06 01:17:00,
2013-03-05 20:22:00,43.0,40.3,29.65,SSW,198,2.0,13.0,90,0.03,,,0.79,0.0,meteohub,2013-03-06 01:22:00,
2013-03-05 20:27:00,42.4,39.7,29.65,WSW,242,4.0,13.0,90,0.03,,,0.79,0.0,meteohub,2013-03-06 01:27:00,
2013-03-05 20:32:00,42.4,38.3,29.65,WSW,246,4.0,16.0,85,0.03,,,0.79,0.0,meteohub,2013-03-06 01:32:00,
2013-03-05 20:37:00,42.4,37.9,29.65,West,275,4.0,16.0,84,0.03,,,0.79,0.0,meteohub,2013-03-06 01:37:00,
2013-03-05 20:42:00,41.7,37.6,29.65,SW,235,3.0,16.0,85,0.02,,,0.79,0.0,meteohub,2013-03-06 01:42:00,
2013-03-05 20:47:00,41.5,37.0,29.65,West,259,1.0,15.0,84,0.01,,,0.79,0.0,meteohub,2013-03-06 01:47:00,
2013-03-05 20:52:00,41.5,37.4,29.65,WSW,240,4.0,11.0,85,0.01,,,0.79,0.0,meteohub,2013-03-06 01:52:00,
2013-03-05 20:57:00,41.5,37.4,29.65,SW,232,1.0,11.0,85,0.00,,,0.79,0.0,meteohub,2013-03-06 01:57:00,
2013-03-05 21:02:00,41.4,37.8,29.65,SW,219,3.0,9.0,87,0.00,,,0.79,0.0,meteohub,2013-03-06 02:02:00,
2013-03-05 21:07:00,40.6,37.6,29.66,East,95,2.0,9.0,89,0.00,,,0.79,0.0,meteohub,2013-03-06 02:07:00,
2013-03-05 21:12:00,39.9,37.2,29.65,East,86,7.0,12.0,90,0.00,,,0.79,0.0,meteohub,2013-03-06 02:12:00,
2013-03-05 21:17:00,39.2,36.5,29.65,NNW,335,7.0,12.0,90,0.01,,,0.80,0.0,meteohub,2013-03-06 02:17:00,
2013-03-05 21:22:00,38.7,36.0,29.66,SSW,192,3.0,12.0,90,0.01,,,0.80,0.0,meteohub,2013-03-06 02:22:00,
2013-03-05 21:27:00,37.9,35.2,29.66,NW,310,1.0,11.0,90,0.01,,,0.80,0.0,meteohub,2013-03-06 02:27:00,
2013-03-05 21:32:00,37.6,34.9,29.66,SE,130,3.0,11.0,90,0.01,,,0.80,0.0,meteohub,2013-03-06 02:32:00,
2013-03-05 21:37:00,37.4,34.5,29.67,SE,140,1.0,7.0,89,0.01,,,0.80,0.0,meteohub,2013-03-06 02:37:00,
2013-03-05 21:42:00,37.0,34.2,29.67,SW,226,2.0,12.0,89,0.01,,,0.80,0.0,meteohub,2013-03-06 02:42:00,
2013-03-05 21:47:00,36.9,33.6,29.66,ENE,76,1.0,12.0,88,0.01,,,0.80,0.0,meteohub,2013-03-06 02:47:00,
2013-03-05 21:52:00,36.7,33.3,29.66,South,188,5.0,12.0,87,0.01,,,0.80,0.0,meteohub,2013-03-06 02:52:00,
2013-03-05 21:57:00,36.3,32.9,29.66,SE,126,5.0,13.0,87,0.01,,,0.80,0.0,meteohub,2013-03-06 02:57:00,
2013-03-05 22:02:00,36.0,32.7,29.67,NNW,338,2.0,13.0,88,0.01,,,0.80,0.0,meteohub,2013-03-06 03:02:00,
2013-03-05 22:07:00,35.6,32.4,29.67,WSW,238,5.0,13.0,88,0.01,,,0.80,0.0,meteohub,2013-03-06 03:07:00,
2013-03-05 22:12:00,35.4,32.0,29.66,SSE,159,3.0,13.0,87,0.00,,,0.80,0.0,meteohub,2013-03-06 03:12:00,
2013-03-05 22:17:00,35.2,31.5,29.67,NW,326,1.0,13.0,86,0.00,,,0.80,0.0,meteohub,2013-03-06 03:17:00,
2013-03-05 22:22:00,35.1,31.3,29.66,ESE,117,2.0,9.0,86,0.00,,,0.80,0.0,meteohub,2013-03-06 03:22:00,
2013-03-05 22:27:00,34.5,30.7,29.65,NNE,20,9.0,9.0,86,0.00,,,0.80,0.0,meteohub,2013-03-06 03:27:00,
2013-03-05 22:32:00,34.3,30.0,29.66,West,261,16.0,16.0,84,0.00,,,0.80,0.0,meteohub,2013-03-06 03:32:00,
2013-03-05 22:37:00,34.2,28.9,29.65,WNW,288,6.0,20.0,81,0.00,,,0.80,0.0,meteohub,2013-03-06 03:37:00,
2013-03-05 22:42:00,33.6,28.4,29.65,WSW,240,3.0,20.0,81,0.00,,,0.80,0.0,meteohub,2013-03-06 03:42:00,
2013-03-05 22:47:00,33.4,28.2,29.65,WNW,300,9.0,20.0,81,0.00,,,0.80,0.0,meteohub,2013-03-06 03:47:00,
2013-03-05 22:52:00,32.9,27.7,29.65,South,177,5.0,13.0,81,0.00,,,0.80,0.0,meteohub,2013-03-06 03:52:00,
2013-03-05 22:57:00,32.5,27.3,29.65,ESE,114,2.0,13.0,81,0.00,,,0.80,0.0,meteohub,2013-03-06 03:57:00,
2013-03-05 23:02:00,32.4,27.1,29.65,ENE,58,3.0,13.0,81,0.00,,,0.80,0.0,meteohub,2013-03-06 04:02:00,
2013-03-05 23:07:00,32.0,27.1,29.65,West,281,8.0,16.0,82,0.00,,,0.80,0.0,meteohub,2013-03-06 04:07:00,
2013-03-05 23:12:00,31.6,26.8,29.64,NW,310,2.0,16.0,82,0.00,,,0.80,0.0,meteohub,2013-03-06 04:12:00,
2013-03-05 23:17:00,31.5,26.2,29.65,NE,38,0.0,16.0,81,0.00,,,0.80,0.0,meteohub,2013-03-06 04:17:00,
2013-03-05 23:22:00,31.3,26.4,29.64,SW,233,1.0,9.0,82,0.00,,,0.80,0.0,meteohub,2013-03-06 04:22:00,
2013-03-05 23:27:00,31.1,26.2,29.64,WNW,287,2.0,9.0,82,0.00,,,0.80,0.0,meteohub,2013-03-06 04:27:00,
2013-03-05 23:32:00,30.9,26.1,29.64,NW,319,4.0,11.0,82,0.00,,,0.80,0.0,meteohub,2013-03-06 04:32:00,
2013-03-05 23:37:00,30.7,25.9,29.64,SE,130,2.0,12.0,82,0.00,,,0.80,0.0,meteohub,2013-03-06 04:37:00,
2013-03-05 23:42:00,30.7,25.5,29.64,West,265,5.0,12.0,81,0.00,,,0.80,0.0,meteohub,2013-03-06 04:42:00,
2013-03-05 23:47:00,30.6,25.3,29.64,ENE,63,3.0,15.0,81,0.00,,,0.80,0.0,meteohub,2013-03-06 04:47:00,
2013-03-05 23:52:00,30.6,25.3,29.64,ESE,108,3.0,15.0,81,0.00,,,0.80,0.0,meteohub,2013-03-06 04:52:00,
2013-03-05 23:57:00,30.6,25.2,29.64,East,98,7.0,16.0,80,0.00,,,0.80,0.0,meteohub,2013-03-06 04:57:00,